TimeCST,TemperatureF,Dew PointF,Humidity,Sea Level PressureIn,VisibilityMPH,Wind Direction,Wind SpeedMPH,Gust SpeedMPH,PrecipitationIn,Events,Conditions,WindDirDegrees,DateUTC
12:15 AM,26.6,26.6,100,29.93,4.0,North,4.6,-,N/A,,Overcast,10,2013-02-26 06:15:00
12:35 AM,26.1,26.1,100,29.92,3.0,NNE,8.1,-,N/A,,Overcast,20,2013-02-26 06:35:00
12:55 AM,25.9,25.9,100,29.92,3.0,NNE,8.1,-,N/A,,Overcast,20,2013-02-26 06:55:00
1:15 AM,25.7,25.7,100,29.91,3.0,North,8.1,-,N/A,,Overcast,360,2013-02-26 07:15:00
1:35 AM,25.2,25.2,100,29.90,3.0,North,9.2,-,N/A,,Overcast,10,2013-02-26 07:35:00
1:55 AM,25.2,25.2,100,29.90,2.5,NNE,8.1,-,N/A,,Overcast,20,2013-02-26 07:55:00
2:15 AM,25.2,25.2,100,29.90,1.8,North,6.9,-,N/A,,Overcast,10,2013-02-26 08:15:00
2:35 AM,24.8,24.8,100,29.90,1.8,North,5.8,-,N/A,,Overcast,10,2013-02-26 08:35:00
2:55 AM,24.8,24.8,100,29.89,2.5,North,5.8,-,N/A,,Overcast,350,2013-02-26 08:55:00
3:15 AM,24.4,24.4,100,29.88,2.0,North,9.2,-,N/A,,Overcast,350,2013-02-26 09:15:00
3:35 AM,24.3,24.3,100,29.88,1.8,North,9.2,16.1,N/A,,Overcast,350,2013-02-26 09:35:00
3:55 AM,24.3,24.3,100,29.89,2.5,North,5.8,-,N/A,,Overcast,360,2013-02-26 09:55:00
4:15 AM,24.3,24.3,100,29.89,3.0,North,8.1,-,N/A,,Overcast,360,2013-02-26 10:15:00
4:35 AM,24.3,24.3,100,29.87,2.0,North,5.8,-,N/A,,Overcast,350,2013-02-26 10:35:00
4:55 AM,24.3,24.3,100,29.88,2.5,North,11.5,-,N/A,,Overcast,360,2013-02-26 10:55:00
5:15 AM,24.4,24.4,100,29.88,2.0,North,10.4,-,N/A,,Overcast,360,2013-02-26 11:15:00
5:35 AM,24.8,24.8,100,29.88,1.8,North,8.1,-,N/A,,Overcast,350,2013-02-26 11:35:00
5:55 AM,25.2,25.2,100,29.87,2.0,North,8.1,-,N/A,,Overcast,360,2013-02-26 11:55:00
6:15 AM,25.3,25.3,100,29.87,2.0,North,6.9,-,N/A,,Overcast,350,2013-02-26 12:15:00
6:35 AM,25.5,25.5,100,29.86,2.0,North,5.8,-,N/A,,Overcast,360,2013-02-26 12:35:00
6:55 AM,25.5,25.5,100,29.86,2.0,North,8.1,-,N/A,,Overcast,350,2013-02-26 12:55:00
7:15 AM,25.5,25.5,100,29.86,2.5,NNW,8.1,-,N/A,,Overcast,340,2013-02-26 13:15:00
7:35 AM,25.3,25.3,100,29.86,2.5,North,8.1,-,N/A,,Overcast,350,2013-02-26 13:35:00
7:55 AM,25.2,25.2,100,29.87,1.5,NNW,9.2,-,N/A,,Overcast,340,2013-02-26 13:55:00
8:15 AM,25.2,25.2,100,29.88,1.8,North,5.8,-,N/A,,Overcast,350,2013-02-26 14:15:00
8:35 AM,24.8,24.8,100,29.89,1.8,North,8.1,-,N/A,,Overcast,350,2013-02-26 14:35:00
8:55 AM,24.8,24.8,100,29.88,1.8,North,8.1,-,N/A,,Overcast,350,2013-02-26 14:55:00
9:15 AM,25.0,25.0,100,29.88,1.5,North,9.2,-,N/A,,Overcast,350,2013-02-26 15:15:00
9:35 AM,24.8,24.8,100,29.88,1.5,NNW,6.9,-,N/A,,Overcast,340,2013-02-26 15:35:00
9:55 AM,25.3,25.3,100,29.89,1.5,NNW,10.4,-,N/A,,Overcast,330,2013-02-26 15:55:00
10:15 AM,25.3,25.3,100,29.88,1.2,NNW,11.5,17.3,N/A,,Overcast,340,2013-02-26 16:15:00
10:35 AM,25.7,25.3,99,29.88,1.5,North,9.2,17.3,N/A,,Overcast,350,2013-02-26 16:35:00
10:55 AM,25.7,25.0,97,29.87,1.8,North,9.2,-,N/A,,Overcast,360,2013-02-26 16:55:00
11:15 AM,26.4,25.3,96,29.87,2.0,NNW,9.2,-,N/A,,Overcast,340,2013-02-26 17:15:00
11:35 AM,27.0,25.7,95,29.87,2.0,NNW,10.4,18.4,N/A,,Overcast,330,2013-02-26 17:35:00
11:55 AM,27.5,26.2,95,29.87,2.0,NNW,10.4,16.1,N/A,,Overcast,340,2013-02-26 17:55:00
12:15 PM,28.2,26.6,94,29.86,2.0,North,8.1,17.3,N/A,,Overcast,350,2013-02-26 18:15:00
12:35 PM,29.1,27.0,92,29.85,2.5,NNW,13.8,-,N/A,,Overcast,340,2013-02-26 18:35:00
12:55 PM,29.7,27.5,92,29.84,2.5,North,9.2,-,N/A,,Overcast,350,2013-02-26 18:55:00
1:15 PM,30.2,27.7,90,29.83,2.5,NNW,10.4,16.1,N/A,,Overcast,340,2013-02-26 19:15:00
1:35 PM,30.2,27.7,90,29.83,2.5,North,8.1,-,N/A,,Overcast,350,2013-02-26 19:35:00
1:55 PM,30.2,28.0,92,29.82,2.5,North,11.5,16.1,N/A,,Overcast,350,2013-02-26 19:55:00
2:15 PM,30.6,28.2,91,29.81,2.5,NNW,11.5,17.3,N/A,,Overcast,340,2013-02-26 20:15:00
2:35 PM,31.1,28.4,90,29.81,2.5,North,12.7,16.1,N/A,,Mostly Cloudy,350,2013-02-26 20:35:00
2:55 PM,31.1,28.8,91,29.81,3.0,NNW,10.4,17.3,N/A,,Mostly Cloudy,340,2013-02-26 20:55:00
3:15 PM,31.1,28.9,92,29.82,2.5,NNW,11.5,19.6,N/A,,Overcast,330,2013-02-26 21:15:00
3:35 PM,30.9,28.8,92,29.82,2.5,NNW,12.7,18.4,N/A,,Overcast,340,2013-02-26 21:35:00
3:55 PM,31.1,28.9,92,29.83,2.5,NNW,12.7,16.1,N/A,,Overcast,330,2013-02-26 21:55:00
4:15 PM,31.3,29.1,92,29.84,2.5,NNW,12.7,17.3,N/A,,Overcast,330,2013-02-26 22:15:00
4:35 PM,31.1,28.8,91,29.84,3.0,NNW,11.5,16.1,N/A,,Overcast,330,2013-02-26 22:35:00
4:55 PM,31.1,29.1,92,29.84,3.0,NW,15.0,18.4,N/A,,Overcast,320,2013-02-26 22:55:00
5:15 PM,30.9,28.9,92,29.84,3.0,NW,13.8,-,N/A,,Overcast,320,2013-02-26 23:15:00
5:35 PM,30.7,28.8,92,29.86,3.0,NW,11.5,17.3,N/A,,Overcast,310,2013-02-26 23:35:00
5:55 PM,30.2,28.6,94,29.86,2.5,NW,12.7,-,N/A,,Overcast,310,2013-02-26 23:55:00
6:15 PM,30.2,28.6,94,29.87,4.0,NW,13.8,-,N/A,,Overcast,320,2013-02-27 00:15:00
6:35 PM,30.2,28.4,93,29.88,4.0,NNW,12.7,-,N/A,,Overcast,330,2013-02-27 00:35:00
6:55 PM,30.2,28.4,93,29.88,4.0,NNW,13.8,-,N/A,,Mostly Cloudy,330,2013-02-27 00:55:00
7:15 PM,30.2,28.4,93,29.89,4.0,NNW,12.7,18.4,N/A,,Mostly Cloudy,330,2013-02-27 01:15:00
7:35 PM,30.0,28.2,93,29.90,4.0,NNW,11.5,17.3,N/A,,Mostly Cloudy,340,2013-02-27 01:35:00
7:55 PM,30.0,28.2,93,29.90,4.0,NNW,11.5,-,N/A,,Mostly Cloudy,340,2013-02-27 01:55:00
8:15 PM,29.8,28.2,94,29.90,4.0,NNW,11.5,17.3,N/A,,Mostly Cloudy,330,2013-02-27 02:15:00
8:35 PM,29.7,28.0,94,29.91,4.0,NW,10.4,-,N/A,,Mostly Cloudy,320,2013-02-27 02:35:00
8:55 PM,28.9,27.5,94,29.92,4.0,NW,9.2,-,N/A,,Overcast,320,2013-02-27 02:55:00
9:15 PM,28.6,27.1,94,29.92,4.0,NNW,10.4,-,N/A,,Overcast,330,2013-02-27 03:15:00
9:35 PM,28.2,26.6,94,29.92,4.0,NNW,11.5,-,N/A,,Overcast,330,2013-02-27 03:35:00
9:55 PM,28.0,26.6,94,29.92,4.0,NNW,10.4,-,N/A,,Overcast,330,2013-02-27 03:55:00
10:15 PM,28.0,26.6,94,29.93,4.0,NNW,11.5,17.3,N/A,,Overcast,330,2013-02-27 04:15:00
10:55 PM,27.5,26.2,95,29.93,4.0,NNW,12.7,-,N/A,,Mostly Cloudy,330,2013-02-27 04:55:00
11:15 PM,27.5,26.1,94,29.93,4.0,NNW,12.7,-,N/A,,Mostly Cloudy,330,2013-02-27 05:15:00
11:35 PM,27.5,26.1,94,29.94,4.0,NW,12.7,17.3,N/A,,Overcast,320,2013-02-27 05:35:00
11:55 PM,27.5,25.9,94,29.93,5.0,NW,13.8,-,N/A,,Overcast,320,2013-02-27 05:55:00